QPF
0.00 0.00 0.00 0.00 0.00 0.00 0.00 0.00 0.00 0.00 0.00 0.00 0.00 0.00 0.00 0.00 0.00 0.00 0.01 0.01 0.01 0.01 0.01 0.01 0.02 0.02 0.01 0.01 0.01 0.01 0.01 0.01 0.01 0.00 0.00 0.00 0.00 0.00 0.00 0.00 0.00 0.00 0.00
0.00 0.00 0.00 0.00 0.00 0.00 0.00 0.00 0.00 0.00 0.00 0.00 0.00 0.00 0.00 0.00 0.00 0.00 0.00 0.01 0.01 0.01 0.01 0.01 0.01 0.01 0.01 0.01 0.01 0.01 0.01 0.01 0.00 0.00 0.00 0.00 0.00 0.00 0.00 0.00 0.00 0.00 0.00
0.00 0.00 0.00 0.00 0.00 0.00 0.00 0.00 0.00 0.00 0.00 0.00 0.00 0.00 0.00 0.00 0.00 0.00 0.00 0.00 0.01 0.01 0.01 0.01 0.01 0.01 0.01 0.01 0.01 0.01 0.01 0.01 0.00 0.00 0.00 0.00 0.00 0.00 0.00 0.00 0.00 0.00 0.00
0.00 0.00 0.00 0.00 0.00 0.00 0.00 0.00 0.00 0.00 0.00 0.00 0.00 0.00 0.00 0.00 0.00 0.00 0.00 0.00 0.00 0.01 0.01 0.01 0.01 0.01 0.01 0.01 0.01 0.01 0.01 0.00 0.00 0.00 0.00 0.00 0.00 0.00 0.00 0.00 0.00 0.00 0.00
0.00 0.00 0.00 0.00 0.00 0.00 0.00 0.00 0.00 0.00 0.00 0.00 0.00 0.00 0.00 0.00 0.00 0.00 0.00 0.00 0.00 0.00 0.00 0.01 0.01 0.01 0.01 0.01 0.01 0.01 0.01 0.00 0.00 0.00 0.00 0.00 0.00 0.00 0.00 0.00 0.00 0.00 0.00
0.00 0.00 0.00 0.00 0.00 0.00 0.00 0.00 0.00 0.00 0.00 0.00 0.00 0.00 0.00 0.00 0.00 0.00 0.00 0.00 0.00 0.00 0.00 0.00 0.00 0.01 0.01 0.00 0.00 0.00 0.00 0.00 0.00 0.00 0.00 0.00 0.00 0.00 0.00 0.00 0.00 0.00 0.00
0.00 0.00 0.00 0.00 0.00 0.00 0.00 0.00 0.00 0.00 0.00 0.00 0.00 0.00 0.00 0.00 0.00 0.00 0.00 0.00 0.00 0.00 0.00 0.00 0.00 0.00 0.00 0.00 0.00 0.00 0.00 0.00 0.00 0.00 0.00 0.00 0.00 0.00 0.00 0.00 0.01 0.01 0.01
0.00 0.00 0.00 0.00 0.00 0.00 0.00 0.00 0.00 0.00 0.00 0.00 0.00 0.00 0.00 0.00 0.00 0.00 0.00 0.00 0.00 0.00 0.00 0.00 0.00 0.00 0.00 0.00 0.00 0.00 0.00 0.00 0.00 0.00 0.00 0.00 0.00 0.00 0.00 0.01 0.01 0.01 0.01
0.00 0.00 0.00 0.00 0.00 0.00 0.00 0.00 0.00 0.00 0.00 0.00 0.00 0.00 0.00 0.00 0.00 0.00 0.00 0.00 0.00 0.00 0.00 0.00 0.00 0.00 0.00 0.00 0.00 0.00 0.00 0.00 0.00 0.00 0.00 0.00 0.00 0.00 0.00 0.01 0.01 0.01 0.01
0.00 0.00 0.00 0.00 0.00 0.00 0.00 0.00 0.00 0.00 0.00 0.00 0.00 0.00 0.00 0.00 0.00 0.00 0.00 0.00 0.00 0.00 0.00 0.00 0.00 0.00 0.00 0.00 0.00 0.00 0.00 0.00 0.00 0.00 0.00 0.00 0.00 0.00 0.00 0.01 0.01 0.01 0.01
0.00 0.00 0.00 0.00 0.00 0.00 0.00 0.00 0.00 0.00 0.00 0.00 0.00 0.00 0.00 0.00 0.00 0.00 0.00 0.00 0.00 0.00 0.00 0.00 0.00 0.00 0.00 0.00 0.00 0.00 0.00 0.00 0.00 0.00 0.00 0.00 0.00 0.00 0.00 0.01 0.01 0.01 0.01
0.00 0.00 0.00 0.00 0.00 0.00 0.00 0.00 0.00 0.00 0.00 0.00 0.00 0.00 0.00 0.00 0.00 0.00 0.00 0.00 0.00 0.00 0.00 0.00 0.00 0.00 0.00 0.00 0.00 0.00 0.00 0.00 0.00 0.00 0.00 0.00 0.00 0.00 0.01 0.01 0.01 0.01 0.01
0.00 0.00 0.00 0.00 0.00 0.00 0.00 0.00 0.00 0.00 0.00 0.00 0.00 0.00 0.00 0.00 0.00 0.00 0.00 0.00 0.00 0.00 0.00 0.00 0.00 0.00 0.00 0.00 0.00 0.00 0.00 0.00 0.00 0.00 0.00 0.00 0.00 0.00 0.00 0.01 0.01 0.01 0.02
0.00 0.00 0.00 0.00 0.00 0.00 0.00 0.00 0.00 0.00 0.00 0.00 0.00 0.00 0.00 0.00 0.00 0.00 0.00 0.00 0.00 0.00 0.00 0.00 0.00 0.00 0.00 0.00 0.00 0.00 0.00 0.00 0.00 0.00 0.00 0.00 0.00 0.00 0.00 0.01 0.01 0.02 0.02
0.00 0.00 0.00 0.00 0.00 0.00 0.00 0.00 0.00 0.00 0.00 0.00 0.00 0.00 0.00 0.00 0.00 0.00 0.00 0.00 0.00 0.00 0.00 0.00 0.00 0.00 0.00 0.00 0.00 0.00 0.00 0.00 0.00 0.00 0.00 0.00 0.00 0.00 0.00 0.01 0.01 0.02 0.03
0.00 0.00 0.00 0.00 0.00 0.00 0.00 0.00 0.00 0.00 0.00 0.00 0.00 0.00 0.00 0.00 0.00 0.00 0.00 0.00 0.00 0.00 0.00 0.00 0.00 0.00 0.00 0.00 0.00 0.00 0.00 0.00 0.00 0.00 0.00 0.00 0.00 0.00 0.00 0.00 0.01 0.02 0.02
0.00 0.00 0.00 0.00 0.00 0.00 0.00 0.00 0.00 0.00 0.00 0.00 0.00 0.00 0.00 0.00 0.00 0.00 0.00 0.00 0.00 0.00 0.00 0.00 0.00 0.00 0.00 0.00 0.00 0.00 0.00 0.00 0.00 0.00 0.00 0.00 0.00 0.00 0.00 0.00 0.00 0.01 0.02
0.00 0.00 0.00 0.00 0.00 0.00 0.00 0.00 0.00 0.00 0.00 0.00 0.00 0.00 0.00 0.00 0.00 0.00 0.00 0.00 0.00 0.00 0.00 0.00 0.00 0.00 0.00 0.00 0.00 0.00 0.00 0.00 0.00 0.00 0.00 0.00 0.00 0.00 0.00 0.00 0.00 0.01 0.01
0.00 0.00 0.00 0.00 0.00 0.00 0.00 0.00 0.00 0.00 0.00 0.00 0.00 0.00 0.00 0.00 0.00 0.00 0.00 0.00 0.00 0.00 0.00 0.00 0.00 0.00 0.00 0.00 0.00 0.00 0.00 0.00 0.00 0.00 0.00 0.00 0.00 0.00 0.00 0.00 0.00 0.00 0.00
0.00 0.00 0.00 0.00 0.00 0.00 0.00 0.00 0.00 0.00 0.00 0.00 0.00 0.00 0.00 0.00 0.00 0.00 0.00 0.00 0.00 0.00 0.00 0.00 0.00 0.00 0.00 0.00 0.00 0.00 0.00 0.00 0.00 0.00 0.00 0.00 0.00 0.00 0.00 0.00 0.00 0.00 0.00
0.00 0.00 0.00 0.00 0.00 0.00 0.00 0.00 0.00 0.00 0.00 0.00 0.00 0.00 0.00 0.00 0.00 0.00 0.00 0.00 0.00 0.00 0.00 0.00 0.00 0.00 0.00 0.00 0.00 0.00 0.00 0.00 0.00 0.00 0.00 0.00 0.00 0.00 0.00 0.00 0.00 0.00 0.00
0.00 0.00 0.00 0.00 0.00 0.00 0.00 0.00 0.00 0.00 0.00 0.00 0.00 0.00 0.00 0.00 0.00 0.00 0.00 0.00 0.00 0.00 0.00 0.00 0.00 0.00 0.00 0.00 0.00 0.00 0.00 0.00 0.00 0.00 0.00 0.00 0.00 0.00 0.00 0.00 0.00 0.00 0.00
0.00 0.00 0.00 0.00 0.00 0.00 0.00 0.00 0.00 0.00 0.00 0.00 0.00 0.00 0.00 0.00 0.00 0.00 0.00 0.00 0.00 0.00 0.00 0.00 0.00 0.00 0.00 0.00 0.00 0.00 0.01 0.01 0.00 0.00 0.00 0.00 0.00 0.00 0.00 0.00 0.00 0.01 0.01
0.00 0.00 0.00 0.00 0.00 0.00 0.00 0.00 0.00 0.00 0.00 0.00 0.00 0.00 0.00 0.00 0.00 0.00 0.00 0.00 0.00 0.00 0.00 0.00 0.00 0.00 0.00 0.00 0.00 0.00 0.00 0.01 0.02 0.02 0.00 0.00 0.00 0.00 0.00 0.00 0.01 0.01 0.01
0.00 0.00 0.00 0.00 0.00 0.00 0.00 0.00 0.00 0.00 0.00 0.00 0.00 0.00 0.00 0.00 0.00 0.00 0.00 0.00 0.00 0.00 0.00 0.00 0.00 0.00 0.00 0.00 0.00 0.00 0.00 0.00 0.01 0.03 0.01 0.00 0.00 0.00 0.00 0.01 0.01 0.01 0.02
0.00 0.00 0.00 0.00 0.00 0.00 0.00 0.00 0.00 0.00 0.00 0.00 0.00 0.00 0.00 0.00 0.00 0.00 0.00 0.00 0.00 0.00 0.00 0.00 0.00 0.00 0.00 0.00 0.00 0.00 0.00 0.01 0.01 0.02 0.02 0.01 0.00 0.00 0.00 0.01 0.01 0.02 0.02
MSLP
1028.29 1028.14 1027.97 1027.81 1027.72 1027.70 1027.73 1027.80 1027.85 1027.86 1027.78 1027.63 1027.41 1027.17 1026.95 1026.78 1026.68 1026.65 1026.67 1026.69 1026.67 1026.59 1026.43 1026.20 1025.94 1025.69 1025.49 1025.36 1025.32 1025.34 1025.39 1025.41 1025.37 1025.21 1024.93 1024.53 1024.03 1023.47 1022.90 1022.33 1021.79 1021.30 1020.84
1028.15 1028.02 1027.86 1027.73 1027.68 1027.71 1027.80 1027.93 1028.04 1028.09 1028.05 1027.91 1027.71 1027.49 1027.28 1027.13 1027.07 1027.07 1027.13 1027.18 1027.20 1027.14 1027.00 1026.78 1026.53 1026.28 1026.08 1025.95 1025.91 1025.93 1025.97 1026.00 1025.96 1025.82 1025.55 1025.15 1024.66 1024.09 1023.49 1022.90 1022.33 1021.81 1021.33
1028.04 1027.91 1027.76 1027.66 1027.65 1027.73 1027.88 1028.07 1028.25 1028.35 1028.36 1028.27 1028.10 1027.90 1027.72 1027.59 1027.53 1027.55 1027.61 1027.67 1027.68 1027.62 1027.48 1027.27 1027.02 1026.77 1026.57 1026.45 1026.41 1026.43 1026.49 1026.53 1026.51 1026.38 1026.13 1025.74 1025.25 1024.67 1024.06 1023.44 1022.84 1022.29 1021.79
1028.00 1027.87 1027.73 1027.65 1027.67 1027.79 1028.00 1028.24 1028.47 1028.63 1028.69 1028.65 1028.53 1028.37 1028.21 1028.09 1028.04 1028.04 1028.08 1028.11 1028.09 1028.01 1027.85 1027.63 1027.37 1027.14 1026.95 1026.85 1026.83 1026.88 1026.96 1027.03 1027.03 1026.92 1026.67 1026.29 1025.79 1025.20 1024.56 1023.91 1023.29 1022.71 1022.20
1028.05 1027.93 1027.80 1027.74 1027.77 1027.92 1028.16 1028.44 1028.71 1028.91 1029.02 1029.03 1028.96 1028.84 1028.72 1028.61 1028.55 1028.53 1028.52 1028.49 1028.42 1028.29 1028.10 1027.87 1027.62 1027.41 1027.26 1027.20 1027.22 1027.31 1027.43 1027.52 1027.53 1027.43 1027.19 1026.80 1026.28 1025.66 1024.99 1024.31 1023.66 1023.06 1022.54
1028.20 1028.09 1027.98 1027.92 1027.97 1028.12 1028.36 1028.65 1028.93 1029.17 1029.32 1029.37 1029.36 1029.29 1029.20 1029.12 1029.05 1028.99 1028.92 1028.83 1028.70 1028.52 1028.29 1028.05 1027.82 1027.64 1027.55 1027.55 1027.63 1027.76 1027.91 1028.03 1028.05 1027.94 1027.67 1027.25 1026.70 1026.05 1025.34 1024.62 1023.94 1023.33 1022.80
1028.41 1028.33 1028.24 1028.19 1028.24 1028.38 1028.60 1028.87 1029.14 1029.38 1029.56 1029.66 1029.70 1029.69 1029.65 1029.60 1029.53 1029.44 1029.32 1029.17 1028.97 1028.73 1028.48 1028.24 1028.05 1027.92 1027.89 1027.96 1028.10 1028.28 1028.45 1028.57 1028.57 1028.43 1028.12 1027.65 1027.05 1026.35 1025.60 1024.85 1024.15 1023.53 1023.00
1028.64 1028.60 1028.53 1028.51 1028.55 1028.67 1028.86 1029.09 1029.33 1029.56 1029.75 1029.90 1030.00 1030.05 1030.07 1030.06 1030.00 1029.90 1029.74 1029.54 1029.29 1029.02 1028.75 1028.53 1028.37 1028.31 1028.35 1028.48 1028.66 1028.87 1029.04 1029.13 1029.09 1028.88 1028.51 1027.98 1027.31 1026.57 1025.78 1025.01 1024.30 1023.68 1023.15
1028.81 1028.82 1028.81 1028.81 1028.86 1028.96 1029.11 1029.30 1029.51 1029.72 1029.92 1030.10 1030.26 1030.39 1030.47 1030.51 1030.48 1030.38 1030.21 1029.97 1029.69 1029.40 1029.13 1028.93 1028.82 1028.82 1028.92 1029.10 1029.31 1029.51 1029.65 1029.68 1029.57 1029.28 1028.82 1028.22 1027.50 1026.71 1025.90 1025.13 1024.41 1023.79 1023.27
1028.85 1028.93 1028.99 1029.05 1029.12 1029.22 1029.35 1029.50 1029.67 1029.86 1030.07 1030.28 1030.50 1030.69 1030.85 1030.94 1030.96 1030.87 1030.70 1030.45 1030.16 1029.87 1029.62 1029.46 1029.40 1029.45 1029.59 1029.79 1029.99 1030.16 1030.24 1030.18 1029.97 1029.59 1029.05 1028.38 1027.62 1026.81 1025.99 1025.22 1024.52 1023.90 1023.38
1028.73 1028.90 1029.04 1029.17 1029.29 1029.41 1029.53 1029.66 1029.81 1029.98 1030.20 1030.44 1030.70 1030.96 1031.18 1031.33 1031.38 1031.33 1031.17 1030.93 1030.66 1030.39 1030.18 1030.05 1030.03 1030.12 1030.28 1030.47 1030.64 1030.74 1030.73 1030.57 1030.25 1029.78 1029.17 1028.45 1027.67 1026.86 1026.07 1025.31 1024.63 1024.02 1023.49
1028.41 1028.68 1028.93 1029.14 1029.33 1029.49 1029.63 1029.76 1029.89 1030.06 1030.28 1030.54 1030.84 1031.14 1031.41 1031.61 1031.71 1031.69 1031.57 1031.36 1031.12 1030.89 1030.72 1030.64 1030.65 1030.75 1030.90 1031.06 1031.17 1031.18 1031.06 1030.80 1030.39 1029.83 1029.17 1028.44 1027.67 1026.89 1026.13 1025.42 1024.76 1024.16 1023.61
1027.92 1028.29 1028.64 1028.95 1029.22 1029.44 1029.61 1029.76 1029.90 1030.07 1030.28 1030.56 1030.87 1031.19 1031.49 1031.73 1031.87 1031.90 1031.82 1031.66 1031.48 1031.30 1031.18 1031.13 1031.17 1031.26 1031.39 1031.48 1031.51 1031.42 1031.20 1030.84 1030.35 1029.74 1029.07 1028.35 1027.61 1026.89 1026.19 1025.53 1024.90 1024.30 1023.72
1027.27 1027.73 1028.18 1028.59 1028.95 1029.24 1029.46 1029.63 1029.79 1029.96 1030.18 1030.44 1030.75 1031.09 1031.40 1031.66 1031.83 1031.91 1031.89 1031.79 1031.67 1031.56 1031.49 1031.47 1031.52 1031.60 1031.67 1031.70 1031.63 1031.45 1031.13 1030.68 1030.14 1029.51 1028.85 1028.17 1027.50 1026.85 1026.23 1025.62 1025.03 1024.43 1023.82
1026.53 1027.06 1027.59 1028.09 1028.52 1028.88 1029.16 1029.37 1029.55 1029.73 1029.94 1030.19 1030.49 1030.81 1031.12 1031.39 1031.59 1031.71 1031.75 1031.73 1031.69 1031.64 1031.62 1031.64 1031.68 1031.73 1031.74 1031.69 1031.53 1031.25 1030.85 1030.35 1029.77 1029.16 1028.53 1027.92 1027.33 1026.77 1026.23 1025.68 1025.12 1024.53 1023.89
1025.74 1026.31 1026.90 1027.46 1027.96 1028.38 1028.72 1028.98 1029.19 1029.38 1029.58 1029.82 1030.08 1030.38 1030.67 1030.95 1031.17 1031.34 1031.45 1031.51 1031.54 1031.57 1031.60 1031.63 1031.67 1031.67 1031.61 1031.47 1031.23 1030.87 1030.41 1029.88 1029.30 1028.71 1028.14 1027.60 1027.09 1026.61 1026.14 1025.66 1025.13 1024.55 1023.91
1024.93 1025.52 1026.14 1026.74 1027.29 1027.77 1028.17 1028.48 1028.73 1028.94 1029.14 1029.36 1029.59 1029.85 1030.13 1030.40 1030.65 1030.86 1031.04 1031.18 1031.29 1031.38 1031.45 1031.50 1031.51 1031.47 1031.34 1031.12 1030.80 1030.38 1029.88 1029.33 1028.76 1028.21 1027.69 1027.21 1026.78 1026.37 1025.96 1025.52 1025.03 1024.47 1023.83
1024.11 1024.71 1025.33 1025.96 1026.55 1027.09 1027.54 1027.91 1028.21 1028.45 1028.66 1028.86 1029.07 1029.30 1029.55 1029.81 1030.08 1030.34 1030.57 1030.79 1030.97 1031.12 1031.23 1031.28 1031.27 1031.18 1030.99 1030.70 1030.32 1029.85 1029.33 1028.77 1028.22 1027.70 1027.22 1026.78 1026.39 1026.02 1025.64 1025.24 1024.78 1024.25 1023.64
1023.28 1023.86 1024.49 1025.13 1025.75 1026.33 1026.85 1027.29 1027.65 1027.93 1028.16 1028.35 1028.54 1028.75 1028.97 1029.23 1029.51 1029.81 1030.10 1030.38 1030.63 1030.82 1030.96 1031.01 1030.98 1030.84 1030.60 1030.26 1029.84 1029.35 1028.81 1028.27 1027.73 1027.22 1026.76 1026.34 1025.95 1025.58 1025.21 1024.82 1024.38 1023.88 1023.30
1022.40 1022.97 1023.58 1024.23 1024.88 1025.52 1026.11 1026.62 1027.05 1027.39 1027.65 1027.85 1028.02 1028.21 1028.41 1028.66 1028.95 1029.28 1029.62 1029.95 1030.25 1030.49 1030.64 1030.70 1030.65 1030.49 1030.21 1029.85 1029.41 1028.92 1028.39 1027.85 1027.33 1026.82 1026.35 1025.90 1025.48 1025.07 1024.67 1024.26 1023.82 1023.34 1022.81
1021.43 1021.99 1022.59 1023.25 1023.94 1024.63 1025.29 1025.88 1026.38 1026.78 1027.08 1027.30 1027.48 1027.65 1027.84 1028.08 1028.37 1028.72 1029.10 1029.48 1029.82 1030.09 1030.27 1030.33 1030.28 1030.11 1029.83 1029.47 1029.05 1028.57 1028.07 1027.55 1027.03 1026.51 1026.00 1025.50 1025.01 1024.54 1024.07 1023.61 1023.15 1022.68 1022.17
1020.36 1020.90 1021.50 1022.16 1022.88 1023.62 1024.35 1025.02 1025.60 1026.06 1026.41 1026.66 1026.84 1027.01 1027.19 1027.43 1027.74 1028.10 1028.51 1028.92 1029.29 1029.59 1029.79 1029.88 1029.84 1029.68 1029.43 1029.11 1028.72 1028.30 1027.84 1027.35 1026.84 1026.30 1025.74 1025.17 1024.59 1024.01 1023.45 1022.92 1022.41 1021.92 1021.43
1019.17 1019.71 1020.30 1020.96 1021.69 1022.47 1023.25 1023.99 1024.64 1025.17 1025.56 1025.85 1026.05 1026.23 1026.42 1026.67 1026.98 1027.37 1027.80 1028.23 1028.64 1028.97 1029.19 1029.30 1029.29 1029.18 1028.98 1028.72 1028.41 1028.05 1027.66 1027.22 1026.73 1026.17 1025.56 1024.90 1024.21 1023.53 1022.86 1022.24 1021.66 1021.13 1020.62
1017.90 1018.42 1018.99 1019.65 1020.38 1021.18 1022.00 1022.78 1023.48 1024.06 1024.51 1024.83 1025.07 1025.27 1025.49 1025.75 1026.09 1026.50 1026.95 1027.41 1027.84 1028.19 1028.45 1028.59 1028.63 1028.57 1028.44 1028.26 1028.04 1027.78 1027.47 1027.09 1026.63 1026.07 1025.41 1024.68 1023.90 1023.11 1022.33 1021.61 1020.96 1020.37 1019.81
1016.61 1017.10 1017.64 1018.26 1018.98 1019.77 1020.60 1021.41 1022.14 1022.76 1023.25 1023.62 1023.91 1024.15 1024.40 1024.70 1025.08 1025.51 1025.99 1026.48 1026.93 1027.30 1027.58 1027.75 1027.83 1027.84 1027.78 1027.70 1027.58 1027.42 1027.20 1026.89 1026.48 1025.93 1025.25 1024.47 1023.61 1022.73 1021.87 1021.06 1020.33 1019.67 1019.06
1015.35 1015.80 1016.29 1016.87 1017.55 1018.31 1019.12 1019.93 1020.67 1021.32 1021.85 1022.27 1022.61 1022.91 1023.22 1023.57 1023.99 1024.46 1024.97 1025.48 1025.94 1026.33 1026.62 1026.82 1026.93 1026.99 1027.01 1027.00 1026.98 1026.92 1026.79 1026.56 1026.20 1025.68 1025.01 1024.21 1023.31 1022.37 1021.44 1020.56 1019.76 1019.04 1018.38
Thickness
5634 5635 5635 5634 5633 5632 5631 5630 5630 5630 5630 5630 5630 5631 5631 5631 5631 5632 5632 5633 5634 5634 5636 5637 5638 5639 5640 5642 5643 5645 5647 5648 5648 5649 5650 5653 5658 5664 5670 5675 5680 5684 5690
5635 5634 5633 5631 5630 5628 5627 5626 5626 5625 5625 5625 5624 5625 5625 5625 5625 5625 5625 5626 5626 5627 5628 5628 5629 5630 5631 5632 5633 5635 5636 5637 5637 5638 5639 5642 5646 5653 5660 5665 5669 5674 5680
5634 5632 5630 5629 5627 5625 5624 5622 5621 5621 5620 5619 5619 5619 5618 5618 5618 5618 5618 5618 5618 5619 5619 5619 5620 5621 5621 5622 5623 5625 5626 5626 5625 5626 5628 5630 5634 5641 5648 5654 5659 5664 5669
5632 5630 5628 5626 5624 5622 5620 5619 5617 5616 5615 5614 5613 5612 5612 5611 5610 5610 5610 5610 5610 5610 5610 5610 5610 5611 5611 5612 5613 5614 5615 5614 5613 5614 5615 5618 5622 5628 5636 5642 5647 5653 5658
5630 5627 5625 5623 5621 5619 5617 5615 5613 5611 5610 5608 5606 5605 5604 5603 5602 5601 5601 5601 5600 5600 5600 5600 5600 5600 5600 5601 5601 5602 5603 5602 5600 5600 5603 5606 5610 5616 5622 5628 5634 5640 5645
5627 5625 5623 5621 5618 5615 5613 5611 5608 5606 5604 5602 5600 5598 5596 5595 5594 5592 5592 5591 5591 5590 5590 5590 5589 5589 5588 5588 5589 5589 5589 5588 5586 5587 5589 5593 5596 5602 5609 5614 5619 5625 5631
5625 5623 5621 5618 5615 5612 5609 5606 5604 5601 5598 5596 5593 5590 5588 5586 5584 5583 5582 5581 5580 5579 5579 5578 5577 5576 5576 5575 5575 5575 5574 5573 5571 5573 5575 5578 5582 5588 5593 5598 5603 5609 5615
5623 5620 5617 5615 5611 5608 5605 5602 5599 5595 5592 5589 5586 5582 5579 5577 5575 5573 5572 5571 5569 5568 5566 5565 5564 5563 5561 5560 5559 5558 5557 5555 5553 5555 5557 5559 5564 5570 5575 5580 5585 5591 5597
5620 5617 5614 5611 5607 5603 5600 5597 5593 5590 5586 5582 5578 5574 5571 5568 5565 5563 5561 5560 5558 5556 5554 5552 5550 5548 5545 5543 5542 5540 5538 5535 5533 5534 5535 5538 5543 5548 5553 5558 5563 5569 5576
5616 5614 5610 5607 5603 5599 5596 5592 5588 5584 5579 5575 5571 5566 5562 5559 5555 5553 5551 5549 5546 5544 5541 5539 5536 5532 5529 5525 5523 5521 5517 5514 5513 5512 5512 5514 5519 5523 5527 5531 5536 5542 5550
5613 5610 5607 5604 5600 5596 5591 5587 5583 5578 5573 5569 5564 5559 5555 5551 5547 5544 5541 5538 5535 5532 5528 5525 5521 5517 5512 5508 5504 5501 5497 5494 5492 5490 5488 5489 5492 5494 5497 5501 5506 5512 5519
5611 5608 5605 5601 5597 5593 5588 5583 5578 5573 5568 5563 5558 5553 5549 5544 5539 5535 5531 5528 5524 5519 5515 5511 5506 5501 5496 5491 5487 5483 5479 5475 5471 5467 5464 5463 5463 5464 5465 5467 5471 5477 5485
5613 5608 5604 5600 5595 5590 5585 5580 5575 5569 5564 5559 5553 5548 5543 5538 5533 5528 5523 5518 5514 5508 5503 5498 5493 5487 5482 5477 5472 5467 5462 5457 5452 5446 5440 5437 5434 5432 5431 5431 5434 5439 5447
5612 5608 5603 5598 5593 5588 5583 5577 5572 5566 5560 5554 5549 5543 5537 5532 5526 5521 5515 5510 5504 5499 5493 5487 5481 5475 5469 5464 5458 5453 5446 5440 5432 5425 5418 5411 5405 5401 5399 5398 5400 5404 5411
5614 5609 5603 5598 5592 5587 5581 5575 5569 5564 5557 5551 5545 5538 5532 5526 5520 5514 5508 5502 5495 5489 5483 5476 5470 5464 5458 5452 5445 5438 5431 5423 5414 5405 5395 5386 5379 5374 5370 5370 5371 5374 5379
5617 5611 5604 5598 5592 5586 5580 5574 5568 5561 5555 5548 5541 5534 5528 5521 5514 5507 5500 5494 5487 5480 5473 5466 5459 5453 5446 5440 5432 5424 5416 5406 5395 5384 5373 5363 5354 5348 5344 5343 5344 5347 5352
5621 5613 5605 5598 5591 5585 5578 5572 5566 5559 5552 5545 5537 5530 5523 5516 5508 5501 5493 5486 5479 5471 5464 5457 5449 5442 5434 5427 5419 5410 5400 5389 5376 5364 5352 5341 5332 5324 5319 5317 5317 5320 5325
5622 5614 5606 5599 5591 5584 5577 5571 5564 5556 5549 5542 5534 5526 5518 5511 5503 5494 5486 5478 5470 5462 5454 5446 5439 5430 5422 5414 5405 5395 5384 5372 5359 5346 5334 5322 5311 5303 5297 5293 5292 5294 5298
5625 5617 5608 5601 5593 5584 5576 5569 5561 5553 5546 5538 5530 5522 5514 5506 5497 5488 5480 5471 5462 5453 5444 5436 5427 5418 5409 5401 5392 5382 5369 5355 5342 5329 5317 5304 5293 5283 5276 5271 5269 5269 5272
5627 5618 5610 5602 5593 5584 5574 5565 5556 5549 5542 5535 5527 5519 5510 5501 5492 5482 5473 5464 5454 5444 5434 5425 5415 5405 5396 5387 5378 5368 5355 5341 5327 5313 5300 5288 5277 5266 5259 5252 5248 5246 5248
5627 5619 5611 5602 5593 5582 5571 5562 5553 5546 5540 5532 5524 5516 5506 5497 5487 5476 5466 5456 5445 5435 5425 5414 5403 5393 5382 5372 5362 5355 5346 5331 5315 5301 5286 5274 5263 5252 5243 5236 5230 5227 5226
5631 5622 5613 5605 5595 5585 5577 5567 5556 5547 5538 5531 5521 5512 5502 5492 5482 5471 5460 5449 5438 5426 5414 5403 5391 5379 5368 5356 5343 5333 5328 5323 5309 5295 5277 5263 5251 5240 5231 5223 5216 5212 5209
5635 5628 5620 5609 5598 5587 5576 5564 5553 5542 5534 5525 5516 5508 5499 5488 5477 5466 5455 5443 5430 5418 5406 5393 5380 5367 5354 5340 5324 5310 5297 5292 5290 5289 5272 5257 5242 5230 5221 5212 5206 5201 5197
5644 5633 5622 5611 5600 5588 5576 5565 5555 5546 5537 5529 5518 5507 5496 5484 5472 5461 5449 5437 5424 5411 5398 5385 5372 5357 5342 5329 5313 5298 5282 5269 5257 5263 5265 5250 5235 5223 5213 5204 5198 5193 5189
5645 5633 5622 5611 5600 5589 5577 5568 5556 5548 5539 5526 5513 5501 5490 5479 5468 5456 5444 5431 5418 5405 5392 5377 5363 5348 5333 5318 5304 5289 5273 5259 5244 5233 5240 5242 5232 5220 5207 5198 5192 5187 5183
5643 5632 5621 5610 5601 5589 5577 5567 5557 5548 5535 5521 5508 5497 5486 5474 5462 5451 5439 5426 5413 5399 5385 5371 5356 5341 5326 5310 5295 5280 5266 5252 5241 5227 5222 5223 5222 5218 5206 5195 5188 5183 5179